TimeMST,TemperatureF,Dew PointF,Humidity,Sea Level PressureIn,VisibilityMPH,Wind Direction,Wind SpeedMPH,Gust SpeedMPH,PrecipitationIn,Events,Conditions,WindDirDegrees,DateUTC
12:51 AM,45.0,12.9,27,30.17,10.0,Calm,Calm,-,N/A,,Mostly Cloudy,0,2013-02-03 07:51:00
1:51 AM,44.1,12.9,28,30.16,10.0,Calm,Calm,-,N/A,,Mostly Cloudy,0,2013-02-03 08:51:00
2:51 AM,46.4,14.0,27,30.24,10.0,Calm,Calm,-,N/A,,Mostly Cloudy,0,2013-02-03 09:51:00
3:51 AM,45.0,14.0,29,30.13,10.0,Calm,Calm,-,N/A,,Overcast,0,2013-02-03 10:51:00
4:51 AM,41.0,14.0,33,30.12,10.0,NE,5.8,-,N/A,,Overcast,50,2013-02-03 11:51:00
5:51 AM,39.2,14.0,36,30.21,10.0,NE,5.8,-,N/A,,Overcast,40,2013-02-03 12:51:00
6:51 AM,39.0,12.0,33,30.13,10.0,North,6.9,-,N/A,,Overcast,360,2013-02-03 13:51:00
7:51 AM,39.9,12.9,33,30.14,10.0,North,6.9,-,N/A,,Overcast,360,2013-02-03 14:51:00
8:51 AM,43.0,14.0,31,30.13,10.0,North,5.8,-,N/A,,Overcast,10,2013-02-03 15:51:00
9:51 AM,48.0,15.1,27,30.12,10.0,North,4.6,-,N/A,,Overcast,350,2013-02-03 16:51:00
10:51 AM,55.0,16.0,22,30.07,10.0,Variable,5.8,-,N/A,,Overcast,0,2013-02-03 17:51:00
11:51 AM,57.0,17.1,21,30.03,10.0,North,4.6,-,N/A,,Mostly Cloudy,360,2013-02-03 18:51:00
12:51 PM,57.9,17.1,20,29.99,10.0,Calm,Calm,-,N/A,,Mostly Cloudy,0,2013-02-03 19:51:00
1:51 PM,60.1,16.0,18,29.94,10.0,Calm,Calm,-,N/A,,Mostly Cloudy,0,2013-02-03 20:51:00
2:51 PM,62.1,16.0,17,29.90,10.0,Calm,Calm,-,N/A,,Mostly Cloudy,0,2013-02-03 21:51:00
3:51 PM,62.1,16.0,17,29.89,10.0,Calm,Calm,-,N/A,,Mostly Cloudy,0,2013-02-03 22:51:00
4:51 PM,61.0,15.1,17,29.89,10.0,Calm,Calm,-,N/A,,Mostly Cloudy,0,2013-02-03 23:51:00
5:51 PM,60.1,16.0,18,29.90,10.0,WSW,4.6,-,N/A,,Mostly Cloudy,250,2013-02-04 00:51:00
6:51 PM,59.0,16.0,19,29.92,10.0,NNW,4.6,-,N/A,,Overcast,340,2013-02-04 01:51:00
7:51 PM,57.0,17.1,21,29.94,10.0,NNW,3.5,-,N/A,,Overcast,330,2013-02-04 02:51:00
8:51 PM,57.0,28.9,34,29.93,10.0,NW,6.9,-,N/A,,Overcast,310,2013-02-04 03:51:00
9:51 PM,57.9,30.0,35,29.90,10.0,WNW,6.9,-,N/A,,Overcast,290,2013-02-04 04:51:00
10:51 PM,52.0,28.9,41,29.89,10.0,East,9.2,-,N/A,,Mostly Cloudy,100,2013-02-04 05:51:00
11:51 PM,57.9,30.0,35,29.86,10.0,West,12.7,-,N/A,,Scattered Clouds,280,2013-02-04 06:51:00